Regional Weather Roundup
Issued by NWS Upton, NY

Current Version | Previous Version | Text Only | Print | Product List | Glossary Off
Versions: 1 2 3 4 5 6 7 8 9 10 11 12 13 14 15 16 17 18 19 20 21 22 23 24 25 26 27

000
ASUS41 KOKX 300104
RWROKX

REGIONAL WEATHER ROUNDUP
NATIONAL WEATHER SERVICE NEW YORK NY
900 PM EDT FRI APR 29 2016

NOTE: "FAIR" INDICATES FEW OR NO CLOUDS BELOW 12,000 FEET WITH NO
SIGNIFICANT WEATHER AND/OR OBSTRUCTIONS TO VISIBILITY.

NYZ071-072-176-178-NJZ106-104-300200-
NEW YORK CITY METRO AREA


CITY           SKY/WX    TMP DP  RH WIND       PRES   REMARKS
CENTRAL PARK   CLOUDY    48  36  63 E7        30.15R
LAGUARDIA APRT CLOUDY    50  38  63 SE7       30.12R
KENNEDY INTL   CLOUDY    48  41  76 E9        30.14R
NEWARK/LIBERTY CLOUDY    50  35  56 E7        30.12R
BRNX BOT. GARD   N/A     45  41  87 NE1       30.12R
TETERBORO      RAIN      49  40  71 NE3       30.12R
$$

NYZ177-179-078>081-300200-
LONG ISLAND NEW YORK

CITY           SKY/WX    TMP DP  RH WIND       PRES   REMARKS
FARMINGDALE    LGT RAIN  47  37  68 E5        30.13R
ISLIP          LGT RAIN  48  34  58 E8        30.12R
SHIRLEY        CLOUDY    48  36  63 VRB5      30.13R
RIVERHEAD        N/A     46  39  76 E3        30.13R
WESTHAMPTON    CLOUDY    44  39  82 E5        30.13R
EAST HAMPTON   MOCLDY    45  39  81 E7        30.12R
MONTAUK POINT    N/A     46  39  76 E6        30.13S
$$

NYZ052-065-067-300200-
HUDSON VALLEY

CITY           SKY/WX    TMP DP  RH WIND       PRES   REMARKS
WHITE PLAINS   RAIN      47  38  71 E3        30.11R
NEWBURGH       LGT RAIN  48  37  66 SW6       30.12R
MONTGOMERY     LGT RAIN  47  40  76 NW5       30.12R
POUGHKEEPSIE   LGT RAIN  50  41  71 VRB3      30.12R
ALBANY         DRIZZLE   53  39  59 W8        30.08R
$$

NJZ001-105-106-008-010-013-015-019>022-104-300200-
NEW JERSEY

CITY           SKY/WX    TMP DP  RH WIND       PRES   REMARKS
NEWARK/LIBERTY CLOUDY    50  35  56 E7        30.12R
TETERBORO      RAIN      49  40  71 NE3       30.12R
CALDWELL       CLOUDY    49  39  68 CALM      30.13R
MORRISTOWN     CLOUDY    48  37  66 CALM      30.13R
SOMERVILLE     LGT RAIN  46  43  89 CALM      30.12R
SUSSEX         LGT RAIN  45  40  82 NW3       30.14R
ANDOVER          N/A     45  41  86 NE3       30.13R
TRENTON        CLOUDY    47  37  68 E3        30.11R
MILLVILLE      CLOUDY    49  44  83 NE12      30.07R
ATLANTIC CITY  CLOUDY    48  44  86 N10       30.10R
WRIGHTSTOWN    CLOUDY    45  43  93 NE5       30.08S
TOMS RIVER     CLOUDY    45  41  87 NE6       30.12R
BELMAR         CLOUDY    46  44  93 E7        30.12R
$$

PAZ047>061-062-071-300200-
EASTERN PENNSYLVANIA

CITY           SKY/WX    TMP DP  RH WIND       PRES   REMARKS
PHILADELPHIA   CLOUDY    49  40  71 E10       30.11R
ALLENTOWN      CLOUDY    47  38  71 NE6       30.12R
SCRANTON       LGT RAIN  44  41  89 CALM      30.11R FOG
$$

CTZ002-004>006-009-010-012-RIZ004-006-007-MAZ004-011-015-300200-
SOUTHERN NEW ENGLAND
 IN CT

CITY           SKY/WX    TMP DP  RH WIND       PRES   REMARKS
BRADLEY INTL   CLOUDY    51  31  46 S9        30.09R
HARTFORD       CLOUDY    51  27  39 S8        30.12R
DANBURY        CLOUDY    48  36  63 CALM      30.12R
WTRBRY/OXFORD  CLOUDY    46  27  46 S6        30.13R
BRIDGEPORT     CLOUDY    49  38  65 E10       30.13R
MERIDEN        CLOUDY    49  30  48 S5        30.13R
NEW HAVEN      CLOUDY    47  36  65 E7        30.13R
CHESTER        CLOUDY    46  34  61 SE6       30.12S
GROTON         CLOUDY    47  44  90 E10       30.13S
WILLIMANTIC    CLOUDY    50  34  54 S10       30.12R

 IN RI

CITY           SKY/WX    TMP DP  RH WIND       PRES   REMARKS
PROVIDENCE     MOCLDY    46  36  68 SE9       30.15R
BLOCK ISLAND   CLOUDY    45  37  73 E12       30.14R
WESTERLY       CLOUDY    47  37  68 E12       30.14R

 IN MA

CITY           SKY/WX    TMP DP  RH WIND       PRES   REMARKS
BOSTON         CLOUDY    46  32  58 SE10      30.15R
WORCESTER      CLOUDY    47  30  51 SE12      30.10R
WESTFIELD      CLOUDY    53  35  50 S13       30.08R
PROVINCETOWN   PTCLDY    44  32  62 SE10      30.16S
NANTUCKET      PTCLDY    44  33  65 E10       30.15S
$$

ANZ330-335-338-340-345-350-353-355-300200-
COASTAL MARINE OBSERVATIONS


STATION/POSITION TIME  SKY/WX   TEMP    WIND        PRES    VSBY  WAVE
                                AIR SEA DIR/SP/G                  HT/PER
                 (UTC)          (F)     (DEG/KT/KT) (MB)    (MI)  (FT/S)
NY HARB ENTRANCE 2350            48 51   80/ 14/ 16 1018.5          6/ 8
20S FIRE ISLAND  2350            46 48   80/ 16/ 17 1018.6          7/ 7
GREAT SOUTH BAY  0000            48 57  100/ 14/ 17   N/A
23 SSW MONTAUK P 2350            45 47   90/ 16/ 17 1019.0          5/ 6
15 E BARNEGAT LI 0022               51                N/A           7/ 8
HUDSON CANYON    2350            48 50              1017.0          7/ 8
KINGS POINT      0000               53              1018.8
EXECUTION ROCKS  NOT AVBL
CENTRAL LI SOUND 0000            48     100/ 12/ 14   N/A           1/ 4
EASTERN LI SOUND 0000            47 47  100/ 10/ 14   N/A
ROBBINS REEF     0000                               1018.4
$$


>>>>>>>>>>>>>>>>>>>>>>>>>>>> KEY <<<<<<<<<<<<<<<<<<<<<<<<<<<
>                                                          <
>     SKY/WX - SKY CONDITION/PRESENT WEATHER               <
>     TMP    - TEMPERATURE IN FAHRENHEIT                   <
>     DP     - DEWPOINT IN FAHRENHEIT                      <
>     RH     - RELATIVE HUMIDITY IN PERCENT                <
>     WIND   - DIRECTION AND SPEED IN MPH                  <
>     PRES   - MEAN SEA LEVEL PRESSURE IN INCHES OF HG     <
>     WCI    - WIND CHILL INDEX                            <
>     VSB    - VISIBILITY IN MILES                         <
>     HX     - HEAT INDEX                                  <
>     TC     - TEMPERATURE IN CELSIUS                      <
>     VRB    - VARIABLE WIND DIRECTION                     <
>                                                          <
>>>>>>>>>>>>>>>>>>>>>>>>>>>> KEY <<<<<<<<<<<<<<<<<<<<<<<<<<<






USA.gov is the U.S. government's official web portal to all federal, state and local government web resources and services.